Tracking 29892 objects as of 21-Nov-2024
HD Live streaming from Space Station
objects crossing your sky now

SL-12 R/B(2)

Track SL-12 R/B(2) now!


NORAD ID: 22115
Int'l Code: 1992-059D
Perigee: 35,887.3 km
Apogee: 35,973.2 km
Inclination: 14.2 °
Period: 1,443.1 minutes
Semi major axis: 42301 km
RCS: 2.5119 m2 (large)
Launch date: September 10, 1992
Source: Commonwealth of Independent States (former USSR) (CIS)
Launch site: TYURATAM MISSILE AND SPACE COMPLEX (TTMTR)

Note: This is a ROCKET BODY
Your satellite tracking list
Your tracking list is empty




NASA's NSSDC Master Catalog

Two Line Element Set (TLE):
1 22115U 92059D   24325.07098260  .00000022  00000-0  00000-0 0  9998
2 22115  14.1880 347.6891 0010153 307.1049 219.6381  0.99786686116554
Source of the keplerian elements: AFSPC